Wetbulb
63.14 63.72 62.70 60.29 53.02 52.95 50.72 50.60 53.19 52.14 52.69 55.52 56.51 54.72 57.34 61.39 60.96 58.24 72.47 74.25 74.93 74.61 76.02 74.43 72.40 73.18 73.53 73.96 74.28 74.60 74.97 75.21 75.00 74.79 74.65 74.84 74.67 74.38 74.50 74.69 74.70 75.32 75.65 74.86 73.97 73.83 73.66 73.10 72.78
62.08 61.20 60.93 57.46 50.87 49.49 50.05 52.69 51.02 52.77 54.47 54.98 54.87 55.11 57.79 60.06 66.70 68.59 70.44 73.17 75.07 75.39 76.20 75.22 72.55 72.84 73.26 73.43 73.75 74.52 75.31 75.50 75.15 74.84 74.78 74.77 74.75 74.36 74.45 74.41 74.26 75.19 75.59 75.47 74.50 73.96 73.06 72.83 72.27
61.11 60.68 56.52 54.78 52.22 49.16 50.13 52.48 52.41 53.36 54.12 53.51 53.63 57.98 59.41 61.68 67.67 69.73 71.58 72.48 74.64 75.07 76.14 75.57 72.62 72.42 72.94 73.06 73.42 74.03 74.84 75.06 74.83 74.68 74.93 74.77 74.77 74.73 74.46 73.95 73.96 74.89 75.82 75.80 74.77 74.38 74.42 72.05 71.18
59.48 59.64 57.42 51.03 50.71 52.00 52.55 53.22 53.83 53.50 54.30 55.17 55.09 55.95 63.32 66.60 67.76 70.39 71.39 71.87 73.17 74.80 76.47 72.70 72.12 72.44 72.56 72.65 72.95 73.27 73.72 73.97 74.19 74.43 74.70 74.88 74.93 74.78 74.44 73.60 73.89 74.74 75.71 75.52 75.09 74.87 73.91 71.61 70.53
59.07 57.70 52.38 51.41 50.61 52.09 53.45 53.93 54.35 53.02 53.62 53.98 55.68 55.07 59.70 63.51 66.94 68.24 69.56 71.10 72.13 73.98 76.61 75.65 71.88 72.31 72.68 72.87 72.90 72.74 72.60 72.87 73.56 74.06 74.49 74.61 74.59 74.49 74.17 73.36 73.57 74.34 75.18 75.08 74.42 74.06 73.24 71.97 70.77
55.41 56.97 50.86 49.60 51.30 52.25 53.71 54.59 53.91 53.33 53.81 54.35 54.67 56.30 57.26 61.29 62.14 64.33 68.42 70.12 72.08 73.06 75.27 76.06 72.68 72.51 72.57 72.67 72.49 72.31 72.05 72.21 72.36 73.11 73.75 74.34 74.27 73.96 73.73 73.41 73.34 73.62 74.07 73.91 73.76 73.12 72.63 71.97 70.87
55.13 54.13 51.20 51.46 50.93 51.34 53.09 55.26 53.34 53.27 53.48 53.45 55.55 53.64 56.95 58.48 60.79 61.97 65.82 69.11 71.09 72.94 74.19 75.80 77.00 73.97 71.68 71.87 71.73 71.49 71.72 71.58 71.71 71.80 72.53 73.31 73.14 72.59 72.94 73.04 73.12 73.30 72.75 73.23 73.24 72.39 71.98 71.44 70.63
55.96 54.68 51.06 51.84 50.65 50.59 53.20 53.30 54.01 53.60 53.30 56.51 56.70 53.57 54.63 58.18 60.39 61.68 62.03 66.24 67.46 69.49 72.50 74.31 76.30 77.21 76.63 75.34 70.41 70.94 71.10 71.01 71.01 71.23 71.31 71.55 72.23 72.55 72.12 72.22 72.09 71.93 72.37 72.13 72.61 72.20 71.71 70.88 70.25
56.28 50.66 49.11 51.03 50.85 51.90 53.25 52.66 55.52 55.86 54.44 54.73 55.62 55.95 57.38 58.83 59.76 60.07 60.24 60.89 62.42 64.76 69.41 72.23 74.46 75.43 77.22 77.17 75.23 71.18 70.87 71.00 71.05 71.19 70.69 70.48 72.93 73.37 73.70 72.14 71.15 71.55 70.68 70.86 71.50 71.23 70.54 69.99 69.99
51.64 49.70 50.13 53.42 52.97 52.04 52.58 53.25 53.86 53.26 53.72 53.80 54.74 57.02 57.36 57.70 58.68 58.51 58.25 58.12 59.92 61.39 63.90 68.55 72.89 74.35 75.64 75.17 76.17 76.34 75.88 75.09 74.40 74.08 74.30 73.45 73.42 72.99 72.71 71.49 69.91 70.60 70.00 70.05 70.25 70.01 69.74 69.91 71.50
51.36 48.18 51.61 51.68 52.27 52.70 52.00 51.48 53.08 52.06 51.26 53.74 52.50 53.90 55.35 57.90 58.70 59.01 59.21 61.23 61.87 62.56 65.98 67.28 69.16 72.89 73.93 73.38 73.75 73.47 73.40 74.66 74.86 75.22 75.08 74.81 74.91 74.13 73.37 74.37 73.63 72.86 70.29 72.19 70.88 71.61 72.37 71.40 70.94
48.27 50.34 50.39 50.65 51.28 51.06 50.44 52.64 51.41 51.95 52.82 54.02 53.84 54.47 56.71 56.67 57.74 58.11 58.62 59.50 60.06 61.21 61.71 62.85 64.30 67.24 69.77 73.03 73.68 74.50 73.72 72.80 72.62 73.29 73.98 74.13 74.54 74.05 73.63 72.85 73.39 73.52 73.24 71.24 71.90 72.01 71.91 71.63 71.71
49.28 49.80 50.92 51.57 51.37 51.65 52.38 50.95 51.09 51.77 53.64 53.88 54.10 55.86 55.73 56.31 57.07 58.42 59.09 59.40 59.13 58.32 58.59 59.98 61.74 63.79 66.65 67.54 67.55 70.53 72.03 71.93 71.35 71.06 70.87 71.25 72.11 72.42 73.25 73.23 72.82 72.53 73.24 72.53 72.23 72.23 71.86 71.57 72.17
50.95 50.82 50.51 51.41 51.45 51.84 50.57 50.95 51.34 52.70 53.91 53.19 53.47 54.37 55.39 55.35 55.94 57.03 57.00 56.77 57.45 57.22 57.06 57.91 58.85 60.79 63.17 64.79 64.28 64.82 64.80 65.06 65.46 64.45 62.34 62.65 62.54 62.63 66.84 71.80 71.96 72.85 72.60 73.27 72.28 71.83 71.16 70.99 71.26
50.58 47.60 49.84 50.65 51.57 50.83 50.91 48.00 49.07 52.91 53.25 52.22 52.93 54.61 54.26 54.37 54.90 54.73 55.24 55.07 55.44 55.96 55.59 55.05 56.28 58.25 60.50 62.51 63.45 63.46 62.51 61.68 61.25 60.50 60.32 60.19 59.69 60.31 61.44 65.08 69.80 70.49 71.44 71.17 70.37 68.34 70.59 71.69 71.06
47.85 48.72 45.00 49.57 50.17 50.19 48.92 44.85 50.56 52.76 51.82 51.12 52.06 53.72 53.48 53.05 53.21 53.77 54.08 54.30 55.00 54.73 54.47 54.53 54.42 55.37 56.97 58.92 60.63 60.71 61.32 60.32 59.80 59.46 59.35 59.17 59.77 60.45 60.95 63.56 65.37 65.00 64.10 68.16 67.67 66.39 64.89 65.70 67.45
48.16 43.97 45.48 47.11 50.16 48.69 48.09 45.25 49.92 52.81 51.17 50.32 51.44 52.72 52.74 52.02 52.17 53.03 53.47 53.65 53.83 53.38 52.91 52.78 53.36 53.28 54.64 56.27 59.41 59.24 59.42 59.13 58.99 58.92 58.21 57.54 58.44 58.43 59.42 61.53 63.12 63.70 64.33 64.73 67.10 67.72 67.94 67.19 67.70
43.54 44.61 45.89 44.94 48.22 47.72 46.46 46.15 48.86 50.12 49.92 50.30 51.05 52.46 51.91 51.02 50.29 51.73 52.68 53.38 53.27 53.04 52.96 52.61 52.20 52.23 53.34 53.87 55.24 56.50 55.64 57.45 57.99 56.11 55.26 55.51 55.41 56.25 57.05 58.65 59.67 60.71 61.67 62.74 63.17 64.04 65.07 67.16 67.15
45.98 44.65 43.15 45.82 48.49 46.65 45.85 45.90 47.44 49.76 50.22 50.33 51.06 52.28 51.32 49.62 50.31 51.05 51.71 52.63 52.61 51.97 51.25 50.76 50.62 51.40 51.42 51.51 51.20 51.90 51.73 54.16 54.20 54.31 54.12 53.95 53.63 54.56 54.74 55.61 56.62 57.65 57.92 58.72 60.05 61.44 61.44 61.57 65.51
45.14 43.26 43.43 46.27 47.65 45.31 44.91 44.73 47.89 49.39 49.52 50.53 50.75 51.71 50.94 49.76 49.81 49.99 51.22 51.59 50.86 50.24 50.11 50.24 50.08 49.94 49.98 50.33 51.17 51.61 51.99 52.51 53.24 52.77 52.87 52.71 52.38 52.84 52.85 53.46 53.86 54.94 55.08 56.25 57.47 58.50 58.40 59.60 61.55
44.20 42.88 42.97 42.41 45.14 46.23 44.54 42.78 45.73 48.79 49.24 49.66 50.51 51.55 51.67 50.99 50.00 49.92 49.75 49.35 49.83 49.24 49.67 49.73 49.78 49.52 49.15 49.62 50.42 50.55 51.58 51.75 50.72 50.40 50.68 50.78 51.54 51.59 51.56 51.38 52.02 51.77 52.30 52.81 54.33 55.51 56.13 55.25 58.25
40.32 45.21 43.43 42.34 41.05 37.65 45.38 37.04 43.92 46.92 46.63 48.01 49.25 50.17 50.56 50.52 50.98 50.53 49.80 49.78 49.92 49.72 50.19 49.44 48.73 48.00 47.93 48.70 48.50 48.06 47.58 46.69 47.93 48.64 49.47 49.44 50.52 49.86 50.46 50.41 49.54 49.05 49.93 49.89 51.00 52.59 52.51 53.36 53.11
41.74 44.69 43.37 42.47 40.91 40.75 40.97 38.62 42.46 46.04 44.34 46.50 48.65 49.52 50.39 50.87 50.61 49.85 50.01 50.10 49.17 48.90 48.54 48.61 48.44 47.46 47.60 47.59 47.07 46.47 45.72 46.18 47.05 47.21 46.56 47.60 47.95 48.60 48.95 48.51 47.14 46.84 46.31 47.15 46.97 48.04 48.65 49.45 49.55
45.09 43.51 43.63 43.40 41.56 34.61 39.90 39.38 39.88 43.41 44.74 46.07 48.45 49.54 50.36 50.67 50.40 50.52 49.99 49.43 47.97 48.24 47.97 47.66 47.42 46.44 46.54 46.01 45.50 45.36 43.71 43.70 43.63 43.72 43.47 44.10 45.09 45.55 46.06 44.58 43.61 42.87 43.20 44.02 43.85 44.71 44.60 44.70 45.85
44.09 40.66 34.25 33.65 34.22 33.81 42.17 38.58 40.71 45.15 46.75 46.63 48.03 49.03 50.23 50.75 50.64 49.83 49.16 48.05 46.45 46.36 46.60 46.32 45.84 44.61 44.97 44.71 44.10 43.26 42.70 42.36 41.81 41.10 40.37 40.04 40.56 41.15 41.11 40.68 40.13 40.57 40.96 41.43 42.18 41.92 42.67 43.18 43.24
42.62 41.03 34.65 27.14 30.28 33.92 40.15 35.35 40.97 46.49 48.91 49.33 48.71 50.12 50.50 50.43 49.72 48.95 48.15 47.25 45.64 45.07 45.27 45.19 44.55 43.38 43.53 43.02 42.79 42.71 42.02 40.93 40.49 39.38 38.59 38.64 37.55 37.95 38.75 38.47 38.79 39.10 39.50 40.09 40.29 40.47 40.94 41.82 43.00
40.34 38.01 42.90 35.72 37.42 33.17 36.75 40.13 44.49 47.43 46.84 47.94 48.38 49.23 49.47 50.21 48.16 48.31 47.04 45.92 45.07 44.67 44.02 43.95 43.32 42.68 42.35 42.11 42.10 41.67 41.01 39.39 38.52 38.51 37.86 36.93 37.11 37.04 37.41 37.36 37.22 37.59 38.31 38.64 38.99 38.89 38.87 39.67 40.50
42.67 43.60 35.69 36.76 26.80 26.44 33.66 36.15 37.58 42.11 44.26 46.20 46.74 47.74 49.02 49.97 46.72 47.18 46.10 44.77 44.65 44.36 44.07 43.41 42.63 41.84 41.98 42.26 41.95 40.89 39.79 38.90 38.36 37.69 35.77 35.32 35.81 35.97 35.78 35.85 36.12 36.33 36.93 37.25 36.89 36.98 37.94 38.35 39.07
39.43 38.94 39.31 38.83 35.83 29.18 27.90 33.86 43.78 42.84 45.11 45.69 47.13 48.23 49.08 49.29 46.05 46.24 45.76 44.35 43.72 43.75 43.32 42.26 41.44 40.83 40.89 40.90 41.14 40.03 38.87 38.06 37.13 36.05 35.66 34.64 35.33 35.56 35.09 35.12 35.01 35.00 35.32 35.50 35.22 35.11 35.72 35.52 36.18
42.72 40.19 39.93 33.03 31.30 34.44 32.19 33.55 45.25 44.96 46.26 46.69 47.25 48.86 49.98 50.09 48.08 45.90 44.48 43.29 43.26 42.44 41.97 41.62 41.26 40.19 39.28 39.80 39.96 38.61 38.13 37.39 36.14 34.80 35.21 35.06 34.77 35.06 34.54 34.41 34.22 34.19 34.16 33.87 33.47 33.56 33.74 33.23 32.46
MSLP
1010.76 1009.33 1008.24 1007.13 1005.46 1002.44 1000.24 1000.90 1001.78 1001.37 1001.66 1002.54 1002.85 1002.68 1002.26 1002.63 1002.42 1003.46 1005.08 1005.68 1006.05 1006.46 1007.47 1008.74 1009.26 1009.44 1009.50 1009.50 1009.72 1010.14 1010.40 1010.72 1011.02 1011.42 1011.65 1011.85 1011.93 1012.14 1012.44 1012.70 1012.88 1012.98 1013.14 1013.37 1013.57 1013.56 1013.57 1013.73 1013.90
1009.71 1008.56 1007.75 1005.67 1003.66 1000.55 999.95 1001.53 1001.87 1002.36 1002.68 1003.25 1003.29 1002.98 1002.58 1003.72 1003.80 1004.59 1005.29 1006.22 1006.30 1006.29 1007.27 1008.31 1009.48 1009.80 1010.00 1010.05 1010.09 1010.25 1010.49 1010.83 1011.20 1011.47 1011.83 1012.04 1012.19 1012.39 1012.54 1012.72 1012.92 1013.12 1013.22 1013.40 1013.65 1013.74 1013.82 1013.94 1014.08
1010.02 1008.46 1006.69 1003.86 1002.20 1000.71 1000.55 1002.04 1002.63 1003.13 1003.24 1003.15 1003.01 1003.14 1003.52 1004.81 1005.38 1005.53 1006.36 1006.43 1006.50 1006.63 1007.19 1008.40 1009.60 1010.02 1010.27 1010.49 1010.59 1010.68 1010.83 1011.04 1011.27 1011.51 1011.89 1012.10 1012.27 1012.48 1012.67 1012.85 1013.02 1013.12 1013.28 1013.44 1013.71 1013.88 1014.05 1014.24 1014.25
1008.46 1007.03 1005.80 1003.98 1001.48 1002.24 1002.28 1003.15 1003.39 1003.12 1003.47 1003.58 1003.44 1003.69 1005.24 1006.00 1005.98 1006.30 1006.57 1006.56 1006.89 1007.16 1007.52 1009.20 1009.62 1010.05 1010.24 1010.47 1010.79 1010.96 1011.13 1011.24 1011.37 1011.53 1011.84 1012.16 1012.31 1012.48 1012.66 1012.92 1013.09 1013.18 1013.33 1013.52 1013.74 1013.89 1014.08 1014.30 1014.41
1007.90 1006.14 1004.11 1002.50 1001.95 1002.80 1003.57 1004.12 1004.05 1003.87 1004.19 1004.04 1003.79 1004.26 1005.25 1006.12 1006.40 1006.68 1006.78 1007.10 1007.20 1007.52 1007.97 1009.28 1009.99 1010.33 1010.49 1010.62 1010.80 1011.01 1011.23 1011.42 1011.57 1011.79 1011.99 1012.13 1012.31 1012.46 1012.61 1012.86 1013.19 1013.24 1013.32 1013.42 1013.59 1013.78 1013.99 1014.21 1014.43
1006.67 1005.24 1003.50 1001.55 1001.59 1003.33 1004.03 1004.76 1004.75 1004.51 1004.54 1004.87 1004.70 1005.03 1005.86 1006.72 1006.96 1007.23 1007.14 1007.47 1007.71 1007.77 1008.22 1009.04 1010.07 1010.36 1010.62 1010.72 1010.87 1011.03 1011.25 1011.43 1011.58 1011.74 1011.96 1012.09 1012.23 1012.38 1012.51 1012.68 1012.87 1013.14 1013.15 1013.32 1013.44 1013.48 1013.67 1013.96 1014.26
1006.47 1004.60 1003.29 1002.30 1002.40 1003.60 1004.26 1005.47 1005.35 1005.25 1005.10 1005.74 1005.76 1005.24 1006.09 1006.82 1007.53 1007.48 1007.60 1007.85 1007.99 1008.28 1008.44 1008.62 1008.98 1009.91 1010.41 1010.59 1010.78 1011.04 1011.16 1011.32 1011.38 1011.56 1011.81 1011.92 1012.08 1012.20 1012.33 1012.56 1012.81 1012.89 1013.05 1013.05 1013.23 1013.51 1013.63 1013.88 1014.01
1006.99 1005.38 1003.85 1003.02 1002.84 1003.62 1005.36 1005.92 1006.32 1005.91 1005.94 1006.70 1006.25 1005.57 1006.30 1007.47 1007.92 1007.65 1007.53 1007.86 1008.01 1008.31 1008.56 1008.85 1009.01 1009.29 1009.66 1010.05 1010.64 1010.88 1011.08 1011.24 1011.39 1011.54 1011.66 1011.70 1011.86 1011.93 1012.19 1012.44 1012.68 1012.68 1012.98 1013.04 1013.10 1013.26 1013.61 1013.79 1013.87
1007.14 1005.81 1003.70 1002.85 1003.91 1004.53 1005.98 1005.86 1006.11 1006.86 1006.50 1006.79 1006.85 1007.13 1007.80 1008.10 1008.06 1007.99 1007.84 1007.68 1007.84 1008.16 1008.47 1008.82 1009.08 1009.03 1009.43 1009.38 1009.71 1010.64 1010.94 1011.07 1011.21 1011.37 1011.48 1011.73 1011.28 1011.14 1011.42 1011.65 1011.97 1012.29 1012.71 1012.97 1013.00 1013.15 1013.18 1013.60 1013.85
1006.76 1005.22 1004.24 1005.16 1005.53 1005.73 1006.47 1006.39 1006.44 1006.72 1006.24 1006.77 1007.00 1007.71 1008.30 1008.64 1008.66 1008.68 1008.54 1008.40 1008.35 1008.38 1008.70 1009.10 1009.12 1009.16 1009.14 1009.05 1009.27 1009.65 1009.70 1010.09 1010.28 1010.36 1010.36 1010.86 1010.71 1010.51 1010.32 1010.64 1011.47 1011.97 1012.20 1012.62 1012.84 1012.96 1013.04 1013.34 1012.88
1006.15 1005.78 1006.00 1006.32 1007.43 1007.33 1006.75 1006.70 1006.78 1006.95 1006.98 1007.05 1008.08 1008.37 1008.90 1009.34 1009.33 1009.47 1009.48 1009.84 1009.89 1009.93 1010.62 1010.93 1010.76 1010.05 1009.43 1008.84 1008.38 1008.63 1008.72 1008.94 1009.73 1010.04 1010.16 1010.11 1010.39 1010.33 1010.09 1010.02 1010.92 1011.21 1011.83 1011.67 1012.18 1012.30 1012.48 1012.31 1012.28
1007.17 1006.52 1007.12 1006.89 1008.03 1008.02 1007.41 1007.14 1007.25 1007.25 1007.61 1008.41 1008.63 1009.33 1009.77 1009.83 1010.02 1010.27 1010.42 1010.90 1011.48 1011.84 1012.48 1012.56 1012.20 1011.66 1011.20 1010.24 1009.75 1009.20 1009.83 1010.65 1010.65 1010.70 1010.64 1010.41 1010.47 1010.63 1010.43 1010.35 1010.25 1010.69 1010.89 1011.01 1010.68 1010.60 1011.01 1011.37 1011.24
1007.58 1006.86 1007.45 1007.84 1008.21 1008.02 1007.81 1007.50 1007.44 1007.45 1008.12 1008.94 1009.09 1010.25 1010.51 1010.56 1010.69 1011.18 1011.46 1011.90 1012.28 1012.68 1013.24 1013.42 1013.20 1012.76 1012.14 1011.88 1011.63 1011.11 1011.09 1011.13 1011.40 1011.46 1011.39 1011.17 1011.04 1010.98 1010.66 1010.67 1010.42 1010.52 1010.52 1010.36 1010.29 1010.17 1010.14 1010.18 1010.20
1007.93 1007.92 1007.76 1007.67 1007.67 1007.64 1007.56 1007.29 1007.24 1007.18 1008.20 1008.57 1008.90 1010.40 1011.52 1011.81 1011.81 1011.91 1012.33 1012.80 1012.98 1013.38 1013.74 1013.92 1013.73 1013.52 1012.84 1012.67 1012.79 1012.57 1012.51 1012.50 1012.42 1012.49 1012.57 1012.32 1012.22 1012.12 1011.68 1011.01 1010.78 1010.55 1010.43 1010.12 1009.77 1009.87 1009.91 1010.25 1010.52
1008.84 1008.07 1007.21 1006.98 1007.05 1007.19 1007.96 1007.06 1006.75 1006.94 1008.14 1008.49 1008.49 1009.69 1011.86 1012.63 1012.76 1012.99 1013.37 1013.58 1013.86 1013.91 1014.43 1014.52 1014.30 1014.17 1013.57 1013.05 1012.91 1012.87 1012.95 1013.04 1013.18 1013.25 1013.16 1012.88 1012.76 1012.52 1012.35 1011.87 1011.18 1010.98 1010.42 1010.25 1010.16 1010.13 1008.12 1008.79 1010.16
1008.54 1007.51 1006.53 1005.23 1007.12 1007.59 1008.08 1005.57 1005.95 1007.20 1007.73 1008.15 1008.44 1009.68 1011.68 1013.03 1013.59 1013.85 1014.08 1014.17 1014.37 1014.52 1014.72 1014.95 1014.84 1014.56 1014.04 1013.69 1013.26 1013.13 1013.10 1013.16 1013.23 1013.26 1013.22 1013.25 1012.96 1012.64 1012.45 1012.04 1011.63 1011.68 1011.29 1010.67 1010.46 1009.79 1007.26 1009.02 1010.28
1007.28 1005.99 1005.42 1005.79 1006.80 1007.03 1007.61 1005.94 1005.69 1006.55 1007.34 1007.84 1008.37 1009.34 1011.60 1013.11 1014.04 1014.36 1014.57 1014.66 1014.79 1014.99 1015.19 1015.25 1015.43 1015.04 1014.42 1013.97 1013.38 1013.25 1013.31 1013.37 1013.23 1013.13 1013.34 1013.56 1013.08 1012.94 1012.59 1011.86 1011.48 1011.32 1010.95 1011.01 1010.91 1010.38 1010.26 1010.42 1010.37
1005.67 1005.44 1005.56 1005.85 1006.07 1007.24 1006.93 1006.57 1006.29 1006.30 1006.80 1007.69 1008.17 1009.36 1011.65 1013.26 1014.28 1014.82 1014.98 1015.16 1015.12 1015.37 1015.54 1015.68 1015.84 1015.65 1014.96 1014.49 1014.04 1013.70 1013.75 1013.48 1013.35 1013.68 1014.07 1014.13 1013.87 1013.63 1013.20 1012.40 1012.10 1011.77 1011.10 1010.69 1011.17 1011.31 1010.93 1010.23 1010.06
1007.66 1006.91 1006.30 1005.97 1006.12 1006.76 1006.94 1006.58 1006.01 1006.02 1006.44 1007.24 1007.74 1009.43 1011.54 1013.39 1014.60 1015.20 1015.48 1015.61 1015.70 1016.07 1016.15 1016.40 1016.38 1016.32 1015.79 1015.14 1014.77 1014.43 1014.28 1013.87 1013.86 1013.98 1014.43 1014.48 1014.46 1014.18 1013.74 1013.16 1012.79 1012.34 1011.84 1011.53 1011.14 1010.79 1011.06 1011.01 1010.55
1008.47 1007.65 1006.95 1006.60 1006.55 1007.48 1007.22 1006.20 1005.85 1005.68 1006.17 1007.62 1008.31 1009.55 1011.70 1013.29 1014.25 1015.13 1015.60 1016.10 1016.58 1016.82 1016.91 1016.85 1016.78 1016.80 1016.69 1016.28 1015.87 1015.53 1014.94 1014.56 1014.35 1014.51 1014.62 1014.76 1014.84 1014.68 1014.31 1014.18 1013.68 1013.30 1012.80 1012.21 1011.58 1011.26 1010.84 1010.66 1010.61
1008.61 1008.10 1007.57 1007.46 1007.25 1007.09 1007.03 1005.80 1005.06 1004.92 1007.16 1008.90 1009.68 1010.11 1011.42 1012.48 1013.66 1014.78 1015.71 1016.46 1016.85 1017.15 1017.22 1017.14 1017.26 1017.33 1017.44 1017.20 1016.51 1016.17 1015.55 1015.14 1015.01 1015.14 1014.90 1015.28 1015.14 1015.15 1015.00 1014.79 1014.50 1014.33 1013.95 1013.10 1012.68 1012.08 1011.57 1010.76 1010.26
1008.46 1008.43 1008.42 1008.62 1008.03 1006.81 1006.70 1005.12 1005.00 1005.15 1007.11 1008.61 1009.56 1010.62 1011.51 1012.60 1013.48 1014.43 1015.39 1016.14 1016.65 1017.22 1017.65 1017.76 1017.81 1017.85 1017.93 1017.77 1017.28 1016.94 1016.46 1016.13 1016.18 1015.91 1015.74 1015.78 1015.48 1015.47 1015.16 1015.04 1015.16 1015.03 1014.60 1014.12 1013.61 1013.06 1012.88 1012.25 1010.96
1008.98 1009.85 1009.64 1009.01 1008.38 1007.74 1006.79 1005.95 1004.27 1004.16 1006.01 1007.52 1009.10 1010.30 1011.40 1012.57 1013.46 1014.39 1015.42 1016.12 1016.86 1017.41 1017.75 1018.05 1018.03 1018.26 1018.37 1018.31 1018.20 1017.85 1017.64 1017.42 1016.98 1016.76 1016.73 1016.14 1015.94 1015.78 1015.58 1015.61 1015.74 1015.64 1015.49 1015.00 1014.78 1014.31 1013.86 1013.41 1012.76
1009.90 1010.12 1009.57 1009.04 1008.62 1007.22 1006.12 1005.37 1003.82 1003.23 1004.78 1006.15 1008.38 1009.95 1011.15 1012.30 1013.44 1014.58 1015.70 1016.25 1016.96 1017.62 1017.96 1018.24 1018.27 1018.61 1018.85 1018.85 1018.79 1018.66 1018.62 1018.31 1017.90 1017.62 1017.44 1017.16 1016.78 1016.48 1016.46 1016.66 1016.67 1016.48 1016.17 1015.70 1015.32 1014.87 1014.45 1014.04 1013.55
1009.86 1009.73 1008.60 1007.66 1007.01 1005.59 1004.80 1004.96 1004.34 1004.36 1005.14 1006.28 1007.47 1009.62 1011.02 1012.20 1013.29 1014.56 1015.41 1016.24 1017.24 1017.74 1018.14 1018.41 1018.71 1019.00 1019.21 1019.23 1019.27 1019.45 1019.40 1019.13 1018.76 1018.77 1018.74 1018.46 1017.99 1017.67 1017.73 1017.61 1017.52 1016.91 1016.59 1016.28 1015.77 1015.06 1014.64 1013.95 1013.74
1008.48 1009.12 1008.73 1007.93 1007.12 1006.00 1005.66 1004.80 1004.16 1004.71 1005.28 1006.69 1007.85 1009.25 1010.76 1012.04 1013.61 1014.91 1015.70 1016.42 1017.25 1018.12 1018.66 1018.86 1019.24 1019.64 1019.79 1019.85 1019.89 1019.94 1019.83 1019.88 1019.75 1019.82 1019.69 1019.21 1019.17 1018.79 1018.64 1018.36 1017.88 1017.25 1016.79 1016.30 1015.74 1015.22 1014.80 1014.20 1013.72
1008.36 1008.62 1009.03 1008.91 1008.88 1007.75 1006.34 1005.05 1004.21 1004.63 1005.68 1006.55 1007.85 1008.96 1010.41 1011.89 1013.92 1014.86 1015.99 1016.72 1017.45 1018.21 1018.94 1019.48 1019.79 1019.98 1020.20 1020.29 1020.33 1020.42 1020.41 1020.50 1020.46 1020.26 1020.20 1020.17 1019.75 1019.40 1019.12 1018.72 1018.07 1017.50 1016.84 1016.31 1015.69 1015.15 1014.57 1014.16 1013.68
1009.09 1008.98 1009.12 1009.73 1009.43 1007.94 1006.50 1004.96 1003.84 1005.05 1006.03 1007.07 1007.98 1008.85 1010.00 1011.61 1014.16 1015.00 1016.17 1017.07 1017.60 1018.33 1019.11 1019.82 1020.31 1020.49 1020.54 1020.55 1020.60 1020.59 1020.82 1020.86 1020.79 1020.92 1020.90 1020.65 1020.27 1019.95 1019.58 1018.95 1018.26 1017.67 1017.00 1016.45 1015.92 1015.28 1014.71 1014.13 1013.48
1008.56 1008.93 1009.42 1009.70 1009.56 1008.77 1007.51 1005.82 1005.03 1005.93 1006.05 1006.56 1007.40 1008.59 1009.66 1011.19 1013.80 1015.08 1016.03 1017.22 1017.90 1018.55 1019.05 1019.91 1020.50 1020.73 1020.71 1020.76 1020.91 1020.94 1021.15 1021.41 1021.41 1021.46 1021.25 1021.07 1020.64 1020.30 1019.79 1019.20 1018.49 1017.81 1017.27 1016.82 1016.15 1015.52 1014.82 1014.32 1013.54
1009.28 1009.56 1009.47 1009.79 1010.04 1009.54 1009.20 1007.43 1006.20 1007.05 1006.78 1006.43 1006.61 1007.24 1008.80 1010.25 1013.01 1014.83 1016.44 1017.22 1017.87 1018.48 1019.03 1019.94 1020.27 1020.70 1021.05 1021.16 1021.27 1021.33 1021.62 1021.74 1021.75 1021.82 1021.69 1021.51 1020.89 1020.67 1020.17 1019.52 1018.99 1018.33 1017.85 1017.16 1016.48 1015.64 1014.99 1014.26 1013.59
Wind_Speed
17 14 7 7 9 9 4 7 5 2 5 7 4 6 10 18 15 7 15 10 6 7 11 11 6 6 8 10 10 10 11 11 11 11 10 11 11 12 12 11 10 10 11 12 10 9 9 8 7
14 9 8 8 10 11 8 7 4 5 6 2 2 4 3 14 12 14 13 11 7 2 11 11 7 5 6 7 8 8 9 10 11 11 10 10 10 10 11 11 11 10 11 12 11 9 7 7 6
14 8 12 6 10 8 9 8 4 5 3 1 2 3 6 5 12 12 10 9 8 7 9 12 8 4 5 6 6 6 7 8 9 10 10 10 10 10 9 9 10 10 10 13 12 9 6 5 6
7 7 7 10 13 7 9 7 2 5 4 3 4 11 10 8 5 8 10 9 9 7 10 12 10 7 7 6 6 6 6 7 8 9 10 10 10 10 9 9 9 10 9 10 10 9 6 6 5
9 9 11 11 2 4 1 4 4 4 5 3 7 8 12 9 9 8 8 9 8 7 8 9 7 7 6 5 5 6 6 6 7 7 7 9 10 9 9 10 9 9 9 10 9 9 8 7 7
8 5 12 12 9 5 2 2 3 2 3 7 5 10 8 11 11 8 8 9 8 7 4 12 10 7 7 6 6 5 5 5 6 7 8 8 9 10 10 10 10 10 10 9 10 9 9 9 7
12 11 14 11 3 7 6 4 1 3 3 8 5 2 7 13 10 7 5 6 6 6 5 2 7 10 9 8 8 7 6 7 7 8 8 9 9 9 11 11 10 11 11 11 10 8 9 9 8
8 8 18 11 7 3 7 1 3 3 11 5 6 3 6 12 10 7 3 1 3 3 2 3 1 5 9 9 9 7 6 5 6 8 9 9 9 10 10 9 11 12 10 10 10 10 8 9 10
7 11 12 9 3 9 4 6 9 1 6 2 1 6 10 10 8 7 6 4 2 1 1 2 3 3 5 6 9 9 8 7 7 8 10 8 10 13 14 13 10 13 9 10 10 10 10 9 8
9 11 6 11 8 4 2 6 5 6 6 6 2 5 6 9 9 9 9 9 8 8 7 10 5 5 4 7 7 7 8 9 9 10 10 10 11 12 12 14 16 13 11 10 10 10 9 9 10
4 12 8 6 6 6 7 8 3 9 9 5 5 6 7 8 8 10 10 13 14 13 15 15 15 14 8 8 4 5 5 2 1 5 6 8 7 8 8 7 7 11 12 11 12 11 10 12 10
10 5 4 1 3 8 9 9 10 7 7 4 1 7 7 7 9 11 11 11 12 11 13 13 14 12 14 8 10 8 5 5 4 4 5 7 5 7 8 8 8 9 7 11 11 10 13 14 14
12 10 3 7 8 11 9 11 11 9 3 3 2 6 6 7 9 10 10 11 10 11 12 12 12 11 11 9 8 9 7 3 4 5 7 6 7 7 8 8 8 8 9 11 11 11 11 13 13
5 7 10 10 11 11 12 12 6 9 6 4 5 5 7 8 10 10 11 11 11 11 12 13 13 12 10 8 9 7 8 8 7 7 8 9 7 6 8 8 9 8 8 10 12 12 13 11 9
10 12 14 15 12 8 6 14 13 7 7 8 8 11 4 6 7 9 10 10 11 11 12 13 12 13 11 9 7 6 7 6 6 6 8 9 7 7 8 7 8 8 9 12 11 11 13 8 9
10 12 14 9 8 7 7 11 13 10 7 8 9 8 2 5 6 8 9 9 10 11 11 11 11 12 11 10 8 7 7 5 5 4 5 9 8 8 7 6 5 6 6 8 5 3 6 8 7
14 12 14 11 10 3 9 9 4 12 8 11 9 3 4 3 4 7 7 9 9 11 12 13 13 13 12 10 6 5 6 4 5 7 8 11 10 12 10 8 8 10 6 5 5 5 5 7 7
12 9 10 9 6 10 13 16 16 15 11 13 8 1 4 2 5 6 7 8 11 11 11 12 12 14 11 8 7 5 6 6 6 7 8 11 10 12 11 9 9 10 9 7 7 7 9 9 9
11 14 16 15 10 13 16 19 16 12 12 14 11 9 7 6 6 5 7 9 10 12 12 13 13 14 11 9 9 8 7 6 7 6 9 10 11 12 12 9 10 10 10 11 11 9 6 7 8
14 16 17 16 15 9 17 20 17 16 9 8 6 7 9 10 8 7 7 8 9 9 10 12 13 14 12 10 9 8 7 7 6 7 8 10 12 12 11 11 10 12 10 12 11 11 9 8 7
15 16 16 17 16 13 20 24 21 11 3 5 6 4 8 9 9 8 6 5 6 7 9 10 11 12 11 12 8 8 8 8 8 9 9 12 12 12 11 12 11 11 10 10 11 11 13 11 8
16 11 7 12 12 12 1 13 15 12 13 11 11 10 9 8 7 7 6 5 7 8 8 9 10 11 11 13 11 12 9 9 9 8 9 11 12 12 12 12 12 12 10 11 10 11 11 12 12
10 5 10 11 12 15 18 13 12 7 12 15 13 11 10 10 9 8 6 6 7 7 7 7 8 10 11 11 11 9 11 9 9 9 13 12 11 12 12 12 13 13 11 11 12 12 12 10 11
4 9 13 12 13 15 18 19 16 12 12 13 13 11 11 11 9 8 6 5 7 7 8 8 9 11 11 11 12 12 12 11 10 11 10 10 10 10 13 15 13 12 12 13 12 13 13 12 11
9 11 8 11 12 14 8 8 11 2 8 1 10 10 11 11 10 7 5 6 6 8 8 7 9 11 11 11 11 12 11 11 12 12 10 13 10 10 13 15 13 11 12 13 12 12 13 12 11
10 11 10 15 15 14 6 8 7 4 8 9 4 9 12 12 10 8 5 6 7 7 8 8 9 9 10 10 10 10 11 8 8 10 9 9 9 10 14 13 13 14 14 13 12 9 10 12 10
8 9 13 16 17 16 20 27 23 13 10 9 10 11 13 13 10 8 7 7 6 7 8 8 7 8 9 9 8 10 10 10 10 11 11 9 10 10 13 13 13 13 13 13 13 9 12 12 12
14 13 8 7 9 20 16 20 15 10 9 10 11 13 14 14 11 9 8 7 6 6 8 7 6 7 8 8 8 9 10 11 11 10 11 12 12 13 13 13 13 13 13 13 13 11 12 12 10
13 15 16 17 16 16 19 15 7 4 8 14 14 13 13 17 13 10 8 7 6 6 7 6 5 6 7 8 8 9 10 10 10 10 11 12 12 13 14 14 14 14 14 14 13 13 13 14 13
12 17 19 13 13 14 10 16 14 3 10 6 8 14 13 16 15 11 8 7 7 6 6 6 5 6 6 6 6 8 8 9 9 10 11 12 13 13 14 15 16 16 16 16 14 13 13 14 15
Wind_Direction
277 241 266 262 244 228 251 114 326 296 185 54 13 331 1 31 20 44 67 36 72 127 147 177 178 163 141 134 140 148 151 160 165 171 183 186 178 173 169 168 169 169 165 163 163 159 156 145 137
301 293 244 276 256 253 107 88 41 8 14 65 144 234 236 63 47 58 57 37 34 156 139 180 151 165 137 131 134 143 152 160 169 170 184 187 186 182 175 172 173 181 176 172 177 175 170 147 139
264 269 273 248 257 290 64 79 53 94 116 191 167 360 25 34 42 65 51 48 66 88 127 113 142 162 144 142 147 142 147 153 163 168 185 190 189 187 182 181 181 184 198 176 189 195 181 161 155
280 215 230 255 278 67 16 83 351 152 122 39 311 92 98 51 53 46 59 50 73 79 97 128 146 167 166 168 166 164 166 168 167 169 184 192 191 191 185 186 192 193 195 187 190 198 182 188 185
238 260 264 240 298 68 175 72 356 53 68 357 311 102 94 65 80 41 51 54 49 77 87 137 143 162 174 179 184 188 184 175 179 182 187 189 192 192 190 189 199 206 200 196 200 204 192 202 208
263 253 264 255 138 125 169 101 324 6 108 36 47 99 80 60 38 10 41 43 39 49 89 130 150 163 176 184 198 199 195 190 189 190 197 195 191 196 196 196 198 209 207 200 204 201 190 203 210
254 284 273 311 288 175 124 272 279 317 231 56 292 183 120 64 18 4 20 27 33 33 18 78 164 174 179 187 189 200 205 208 204 203 206 204 204 211 197 200 208 209 211 203 204 205 203 204 208
283 282 270 251 263 207 100 225 325 318 93 301 342 120 64 21 345 333 22 6 54 19 42 336 220 200 186 189 193 194 201 211 218 223 215 209 214 215 206 210 209 225 217 216 208 203 208 210 209
266 261 258 250 222 96 138 242 134 1 257 336 332 34 13 346 353 358 327 323 342 240 180 358 305 256 245 230 170 183 206 208 220 223 219 218 229 216 219 213 214 207 209 218 214 210 201 213 217
250 259 327 10 44 71 225 268 359 283 198 201 306 2 8 3 11 6 358 359 348 351 23 1 350 315 267 254 172 210 202 211 214 223 224 216 233 236 229 210 193 198 202 216 215 213 201 206 236
237 258 33 99 23 312 311 275 312 280 257 40 339 340 20 11 27 24 15 23 13 26 23 7 354 342 310 287 244 221 222 258 167 252 234 251 256 263 239 234 196 208 203 220 211 213 221 219 227
261 233 286 31 167 284 277 313 285 287 313 4 337 24 20 28 32 28 32 30 28 25 17 2 359 353 358 330 344 6 0 13 331 321 298 283 273 270 261 268 214 222 231 216 223 211 214 217 225
248 270 207 260 245 254 268 263 274 263 132 230 60 64 26 30 30 46 38 35 36 28 23 11 11 3 360 8 5 4 3 25 4 2 357 339 317 289 278 273 266 240 227 224 225 228 220 214 219
14 288 267 255 255 250 260 264 239 218 145 246 221 87 37 19 27 35 33 34 25 30 27 14 15 11 9 22 25 21 27 19 27 31 19 16 18 8 343 294 270 261 258 244 237 224 218 220 226
271 265 253 231 240 241 263 249 209 220 184 257 236 137 76 22 32 41 33 30 27 32 29 21 16 11 12 16 20 41 37 40 34 31 28 22 18 3 352 334 328 307 287 274 272 279 236 214 221
250 241 266 167 174 151 236 290 161 164 208 264 279 119 113 52 29 40 38 38 37 35 36 36 25 20 15 12 19 23 26 44 47 41 37 15 13 1 342 318 328 323 310 323 290 273 323 310 291
210 259 215 177 190 264 228 290 120 186 237 270 258 164 116 134 69 53 52 50 42 43 32 35 29 19 16 17 0 27 28 27 25 22 20 8 7 357 343 328 334 336 310 312 312 293 230 251 249
316 234 235 246 175 204 260 267 268 261 263 260 264 284 162 149 74 59 52 48 42 43 41 39 32 21 15 19 10 19 10 10 8 16 16 3 1 355 342 333 344 327 322 325 332 315 331 297 265
306 287 280 283 288 283 266 270 266 264 252 247 233 174 168 151 120 92 71 54 50 38 34 32 30 27 16 19 13 1 354 5 354 12 5 2 358 356 347 347 335 332 331 329 321 313 312 306 302
267 270 271 274 270 299 274 268 275 265 244 296 276 160 163 158 149 136 107 73 51 41 30 28 27 27 23 7 8 356 350 351 352 3 349 11 354 354 346 345 338 342 329 323 321 322 309 293 290
258 265 277 289 305 279 272 268 262 213 182 193 216 167 162 167 150 148 119 92 74 45 29 25 22 19 20 5 9 1 355 351 5 348 352 354 351 349 347 342 342 341 327 327 327 315 312 304 294
270 289 313 275 270 275 89 286 294 198 188 197 179 184 170 161 151 133 128 87 67 46 40 30 30 25 22 15 7 360 357 349 348 340 350 334 347 343 346 347 346 333 328 323 324 327 326 312 296
271 355 272 275 274 280 265 264 291 148 191 190 186 185 175 169 166 143 116 87 72 62 57 37 36 35 29 24 18 7 4 348 345 342 339 336 347 338 342 350 345 335 333 324 314 316 320 314 302
272 264 248 244 252 258 265 249 267 248 207 172 171 182 176 170 151 128 119 110 85 68 55 42 35 36 29 24 20 19 9 352 348 356 341 349 336 344 345 353 338 336 325 326 320 310 301 294 292
241 257 275 261 232 252 230 264 274 320 165 170 156 182 178 173 168 157 152 110 70 62 51 44 34 35 27 24 23 20 10 8 352 359 348 340 344 346 347 339 337 328 325 316 314 310 304 301 287
208 242 257 284 281 296 319 258 279 60 135 155 192 189 173 178 135 184 141 119 101 77 55 48 41 37 32 30 23 24 20 15 3 1 350 351 345 341 337 337 332 331 325 321 316 312 305 297 289
238 245 261 280 285 279 275 274 266 171 175 164 190 184 181 176 164 172 151 129 109 88 67 53 43 47 40 32 29 31 29 24 12 6 2 354 350 341 341 336 335 334 330 323 322 314 307 301 294
265 282 282 243 259 260 261 278 288 158 185 185 196 198 187 157 175 163 162 148 126 103 95 74 54 48 42 34 35 37 32 28 20 15 9 5 357 351 344 345 343 340 338 337 330 320 311 301 292
244 231 239 264 256 273 276 271 331 111 220 211 198 203 200 160 172 184 165 148 124 115 98 94 73 47 38 32 33 35 35 29 26 16 12 7 2 359 358 356 353 352 350 344 339 331 327 327 321
253 254 265 248 267 269 283 267 315 136 302 266 245 201 192 172 171 163 168 164 147 127 115 105 82 69 51 35 31 42 34 30 27 18 13 9 10 7 4 4 1 358 355 351 345 342 341 338 331